Location: LDNL
(36.4545°S, 141.6685°E)
Time: 10:09:18
(UTC+11:00)

Courier 1B - Pass Details

Date: 14 February 2023
Orbit: 962 x 1209 km, 28.3° (Epoch: 21 March)

Event Time Altitude Azimuth Distance (km) Brightness Sun altitude
Rises 22:54:48 0° 288° (WNW) 3,690 10.9 -26.0°
Reaches altitude 10° 22:57:32 10° 295° (WNW) 2,768 10.1 -26.4°
Enters shadow 23:02:46 40° 341° (NNW) 1,475 8.2 -27.1°
